Temperature
24 23 23 23 20 20 23 25 25 26 26 26 26 24 23 22 22 21 20 20 20 20 20 20 20 20 20 20 20 20 20 20 20 20 20 20 20 20 20 20 20 20 20 20 19 19 19 19 19
24 24 24 23 20 21 24 25 26 26 26 26 25 24 23 22 21 20 19 20 21 21 20 20 20 20 20 20 20 20 19 19 20 20 20 20 20 20 20 20 20 20 19 19 19 19 19 19 19
24 24 24 21 22 22 25 25 26 27 28 27 25 24 23 22 20 20 21 20 21 21 20 20 20 20 20 20 20 19 19 19 19 19 19 19 19 20 20 20 19 19 19 19 19 19 19 19 19
25 24 24 21 24 25 26 26 26 27 27 26 25 23 23 22 22 21 21 21 21 21 20 20 20 20 20 20 20 19 19 19 19 19 19 19 19 19 19 19 19 19 19 19 19 19 19 19 19
25 24 22 23 25 26 26 27 28 26 26 25 24 22 22 22 22 21 21 21 21 21 20 20 20 20 20 20 20 19 19 19 19 19 19 19 19 19 19 19 19 19 19 19 19 19 19 19 19
25 22 22 23 25 26 27 28 27 26 25 24 23 22 21 22 21 21 21 21 21 21 21 20 20 20 20 20 20 19 19 19 19 19 19 19 19 19 19 19 19 19 19 19 19 19 19 19 19
25 22 22 23 24 26 27 28 27 25 25 25 24 22 21 21 21 21 21 21 21 21 21 21 20 20 20 20 20 19 19 19 19 19 19 19 19 19 19 19 19 19 19 19 19 19 19 19 18
26 21 22 22 23 25 27 28 28 27 26 26 25 22 22 22 21 21 21 21 21 21 21 21 21 20 20 20 20 19 19 19 19 19 19 19 19 19 19 19 19 19 19 19 19 19 19 18 18
26 20 21 22 22 23 26 27 28 27 27 26 26 25 24 23 22 21 21 21 21 21 21 21 21 21 20 20 20 19 19 19 19 19 19 19 19 19 19 19 19 19 19 19 19 18 18 18 18
25 21 22 22 22 22 24 26 27 26 25 25 25 24 23 23 22 22 21 21 21 21 21 21 21 21 20 20 20 19 19 19 19 19 19 18 18 18 18 18 19 19 19 19 19 18 18 18 18
25 22 23 23 24 24 25 26 26 25 23 23 24 23 23 23 22 22 22 22 22 22 21 21 21 21 20 20 20 19 19 19 19 19 19 18 18 18 18 18 18 19 19 19 18 18 18 18 18
26 25 24 25 26 25 26 26 25 24 23 24 24 24 23 22 22 22 22 22 22 22 21 21 21 21 21 20 20 20 19 19 19 19 19 18 18 18 18 18 18 18 19 18 18 18 18 18 18
26 25 26 26 26 26 25 24 24 23 23 24 23 23 22 22 22 22 22 22 22 22 22 21 21 21 21 20 20 20 20 19 19 19 19 18 18 18 18 18 18 18 18 18 18 18 18 18 18
26 26 26 25 25 24 24 23 23 22 22 22 22 21 21 21 21 21 21 21 21 21 21 21 21 21 21 20 20 20 20 20 19 19 19 19 18 18 18 18 18 18 18 18 18 18 18 18 18
27 25 24 23 23 23 23 21 20 20 21 21 20 20 20 20 20 20 20 20 20 21 21 21 21 21 21 21 20 20 20 20 19 19 19 19 18 18 18 18 18 18 18 18 18 18 18 18 18
25 23 23 22 22 22 22 19 19 20 20 19 19 19 19 19 19 19 19 20 20 20 20 20 20 20 21 21 21 20 20 20 20 19 19 19 19 18 18 18 18 18 18 18 18 18 18 18 18
21 22 22 22 22 22 20 18 18 18 18 17 17 17 17 17 18 18 18 19 19 19 20 20 20 20 20 20 20 20 20 20 20 19 19 19 19 18 18 18 18 18 18 18 18 18 18 18 18
21 22 21 21 21 20 18 17 17 17 16 16 16 16 16 16 16 17 18 18 18 19 19 19 20 20 20 20 20 20 20 20 20 19 19 19 19 19 18 18 18 18 18 18 18 18 18 18 18
22 21 21 21 21 19 17 16 16 16 16 15 15 15 15 15 16 17 17 17 18 18 18 19 19 19 19 20 20 20 20 20 20 20 19 19 19 19 18 18 18 18 18 18 18 18 18 18 18
21 20 19 20 20 19 16 16 16 15 15 15 14 14 14 14 15 16 16 17 17 17 17 18 18 19 19 19 19 19 20 20 19 19 19 19 18 18 18 18 18 18 18 18 18 18 18 17 17
20 20 20 20 19 19 17 15 14 14 14 14 14 13 13 13 13 14 15 16 16 16 16 17 17 18 18 19 19 19 19 19 19 19 19 18 18 18 18 18 18 18 18 18 18 18 17 17 17
19 20 20 20 18 16 17 14 13 13 13 13 13 13 13 13 13 13 14 15 15 15 15 16 16 17 17 18 18 18 19 19 19 19 18 18 18 18 18 17 17 17 17 17 17 17 17 17 17
19 19 19 19 17 16 15 13 12 12 12 12 12 12 12 12 12 13 13 13 14 14 15 15 15 16 16 17 17 17 18 18 18 18 18 18 18 17 17 17 17 17 17 17 17 17 17 17 17
17 17 17 15 14 14 13 13 12 11 11 12 12 12 12 12 12 12 13 13 14 14 14 14 15 15 16 16 16 17 17 17 17 17 17 17 17 17 16 16 16 16 16 16 16 16 16 16 16
15 14 14 14 13 13 14 13 12 12 12 12 12 12 12 12 12 12 12 13 13 13 14 14 14 15 15 15 15 16 16 16 16 16 16 16 16 16 16 16 16 16 16 15 16 16 16 16 16
16 14 13 14 13 13 13 12 11 12 12 12 12 12 12 12 12 12 12 12 13 13 13 13 14 14 14 14 15 15 15 15 15 15 15 15 15 15 15 15 15 15 15 15 15 15 15 15 15
15 14 14 13 13 12 12 12 12 13 12 12 12 12 12 12 12 12 12 12 12 12 13 13 13 13 14 14 14 14 14 14 15 15 15 15 15 15 15 15 15 14 14 15 15 15 15 15 15
15 14 12 12 12 12 12 12 11 11 11 11 12 12 12 12 12 12 12 12 12 12 12 13 13 13 13 13 14 14 14 14 14 14 14 14 14 14 14 14 14 14 14 15 15 15 15 15 15
14 14 12 11 11 11 11 11 12 11 11 11 11 12 12 12 12 12 12 12 12 12 12 12 13 13 13 13 13 13 13 13 14 14 14 14 14 14 14 14 14 14 14 15 15 15 15 15 15
15 14 12 11 11 11 11 11 13 12 12 12 12 13 13 13 13 12 12 12 12 12 12 12 12 12 13 13 13 13 13 13 14 14 14 14 14 14 14 14 14 14 15 15 15 15 15 15 15
Wind_Speed
5 1 3 3 6 6 4 1 3 5 5 5 9 10 8 5 4 6 6 14 17 14 16 17 16 16 15 15 14 14 14 13 13 13 13 12 12 12 11 11 11 11 10 10 10 9 9 9 8
2 1 2 4 6 5 0 2 5 5 7 9 9 8 7 6 7 9 8 15 18 16 16 16 17 16 15 14 14 14 13 13 12 12 12 11 11 11 11 11 11 10 10 10 9 9 8 8 7
2 1 2 4 4 5 4 4 5 4 6 6 6 6 6 6 8 6 11 19 17 15 16 17 17 16 15 14 14 13 13 13 12 11 11 11 10 10 10 10 10 10 9 9 9 8 7 7 6
1 3 5 4 3 5 6 5 6 6 7 7 7 6 4 4 6 12 19 19 17 13 16 17 18 16 15 14 14 14 13 12 12 11 11 10 10 10 9 9 9 9 9 8 8 7 7 6 5
3 4 5 2 0 1 2 4 7 8 5 7 9 6 4 4 16 22 20 18 17 13 15 17 18 16 15 14 14 14 13 13 12 11 11 10 10 9 9 9 8 8 8 8 7 6 6 5 5
4 5 5 3 3 3 4 8 11 11 9 9 10 7 3 8 17 19 18 16 16 16 15 17 18 17 16 15 14 14 13 13 12 12 11 11 10 9 9 8 7 7 7 7 6 5 5 4 4
4 4 2 2 3 4 3 5 10 9 8 7 8 7 5 8 13 17 17 16 15 14 13 14 16 16 16 15 15 14 14 13 13 12 12 11 10 10 9 8 7 6 6 5 5 4 3 3 2
4 4 4 4 5 4 4 3 6 9 7 7 7 9 7 9 12 15 16 15 14 12 12 12 14 15 15 15 15 15 15 14 14 13 13 12 11 11 10 9 8 7 6 5 4 3 3 2 1
5 5 2 3 3 5 7 5 6 7 7 4 4 6 10 13 13 14 12 11 12 13 11 11 11 13 14 15 16 16 15 15 15 14 14 13 11 11 11 10 9 8 7 6 5 4 4 3 3
5 4 4 4 3 3 6 4 4 7 9 6 6 7 11 12 13 13 14 15 15 15 14 12 12 12 13 14 14 13 14 14 14 14 13 13 12 11 11 11 11 10 9 8 7 6 5 5 5
4 6 5 5 6 3 2 4 6 7 6 2 8 10 11 9 10 11 13 15 16 16 14 14 13 12 12 9 11 11 11 12 13 14 14 13 12 11 11 10 10 10 9 8 7 7 7 6 6
3 3 6 5 5 1 0 2 6 9 3 2 8 11 9 7 6 7 8 10 10 12 14 15 14 12 12 11 10 10 9 9 10 14 15 12 8 7 8 8 9 9 9 8 7 6 8 8 9
3 1 1 3 4 4 7 8 7 10 8 8 11 10 8 7 5 3 2 4 6 10 12 13 14 14 12 10 8 9 9 10 13 14 15 15 8 6 7 7 9 10 10 8 6 6 6 6 6
1 1 1 3 4 6 9 8 8 9 10 15 14 12 10 10 9 10 10 7 3 2 6 10 13 13 12 12 11 10 10 11 12 12 15 17 13 9 7 7 7 8 10 10 8 6 5 4 4
1 3 4 5 4 3 7 10 9 8 12 16 14 12 13 12 13 12 9 9 8 6 3 2 8 10 12 12 12 9 10 11 9 12 16 17 15 13 9 8 7 8 12 10 6 5 4 3 3
6 5 4 4 3 3 8 6 10 10 14 16 15 14 13 12 13 12 11 11 10 10 9 7 3 5 8 9 10 8 9 9 9 12 13 16 16 15 10 8 8 10 9 6 4 4 4 3 3
7 4 3 4 5 3 7 5 9 13 17 17 16 15 14 15 16 14 13 12 11 11 10 10 8 5 4 6 8 8 8 8 9 10 10 13 14 14 9 6 6 8 5 4 5 3 3 4 3
3 2 3 3 5 9 11 10 13 15 18 17 15 14 15 16 15 15 14 13 12 11 11 11 11 8 6 3 3 4 6 7 7 7 8 11 11 11 8 5 5 6 5 4 3 4 3 3 3
4 5 4 3 4 8 12 13 13 14 17 17 16 15 15 14 13 14 15 15 13 12 11 11 11 10 7 3 2 4 5 6 6 6 6 8 8 9 7 6 6 5 5 5 5 4 4 2 2
8 6 5 3 3 5 12 13 11 15 16 14 15 15 15 16 16 17 15 15 15 13 12 11 10 10 8 5 3 3 3 2 3 3 5 7 7 8 7 7 6 6 6 5 4 4 3 2 3
6 4 2 4 4 5 7 7 11 10 13 15 15 14 14 15 16 16 16 14 13 13 12 11 10 10 9 8 4 2 1 2 2 3 4 5 7 7 6 6 6 6 6 6 6 5 6 4 2
4 5 4 3 2 1 2 2 7 9 13 18 18 17 17 16 16 15 15 15 13 12 11 10 10 10 9 7 4 2 3 4 5 5 4 4 4 5 6 5 6 6 5 5 6 5 4 5 3
5 8 5 2 3 3 6 5 5 8 12 17 17 17 16 16 16 15 14 13 12 11 11 10 10 10 9 8 5 2 2 3 3 4 6 5 4 4 5 5 5 5 5 5 4 4 4 4 4
6 6 7 7 6 5 6 4 5 7 11 15 15 16 15 15 15 14 13 12 11 11 11 10 10 10 10 9 7 4 1 2 5 5 6 5 3 3 4 5 5 5 5 5 5 4 5 5 4
10 7 6 8 7 3 3 6 3 7 10 11 13 14 14 13 13 13 13 13 12 13 12 10 10 10 10 10 8 7 3 2 3 3 4 4 3 2 2 3 3 4 4 4 4 4 4 4 5
6 6 5 2 0 1 4 4 2 6 9 10 10 11 13 14 13 12 12 11 11 11 12 11 10 9 9 9 8 8 6 3 3 3 3 3 2 2 2 2 2 2 3 3 3 3 4 4 5
5 4 2 5 3 3 3 2 3 8 11 12 13 13 13 13 14 13 12 10 10 10 10 10 10 9 9 9 8 8 7 6 5 4 3 3 2 2 2 2 2 2 2 3 3 3 4 4 4
5 2 6 5 3 2 2 3 5 10 12 13 13 13 12 12 13 13 12 11 10 10 9 9 9 9 8 9 8 8 8 7 6 5 4 3 1 1 2 1 2 2 3 3 4 4 4 4 4
7 6 6 5 4 3 1 2 4 7 9 10 11 11 10 10 11 10 10 10 10 10 9 9 9 9 9 9 8 8 8 8 7 6 5 4 2 2 1 0 1 1 2 2 2 3 4 4 4
4 3 4 4 3 3 3 3 6 7 8 8 9 9 9 9 9 8 8 9 9 9 9 10 9 9 9 8 8 8 8 8 8 7 6 6 5 4 3 2 2 2 2 1 1 1 3 3 4
Wind_Direction
292 264 122 82 55 56 89 96 86 58 61 65 77 85 87 68 93 134 142 147 140 146 150 148 145 140 137 135 132 128 125 121 118 115 113 109 107 106 105 103 102 101 100 98 97 98 98 98 98
312 133 106 60 82 83 49 151 99 101 131 119 84 84 82 73 86 106 123 144 143 147 149 150 148 144 142 139 136 133 129 125 122 119 117 113 110 108 106 105 105 104 102 100 99 98 99 102 103
256 175 96 65 112 150 174 188 143 114 108 102 84 63 78 110 113 119 143 144 143 147 151 153 151 149 146 144 141 137 134 131 129 126 123 119 116 113 110 109 108 107 105 103 101 103 104 106 108
87 57 51 69 146 199 176 177 138 100 68 69 91 61 51 117 126 134 142 145 145 149 151 155 154 153 151 149 147 143 141 139 137 135 131 127 124 120 117 114 113 111 110 107 105 107 111 114 114
83 68 40 27 294 311 149 136 108 94 80 80 89 84 45 51 123 136 145 148 148 150 154 159 158 157 156 154 154 152 150 148 147 146 143 138 135 130 125 120 117 115 114 112 110 110 117 123 123
61 60 56 26 16 31 61 102 99 97 111 112 105 102 94 124 133 146 150 152 152 154 158 162 163 162 161 161 161 159 159 159 157 155 153 151 148 144 138 132 127 123 121 120 118 120 126 132 132
88 67 30 4 5 45 72 94 106 114 125 142 128 104 130 155 151 153 154 152 154 156 159 162 166 167 168 168 168 167 167 168 166 164 164 161 158 156 152 149 147 143 140 140 139 141 146 151 149
110 81 23 8 10 353 341 66 107 113 116 134 123 129 162 187 160 152 153 152 155 160 165 166 168 169 171 173 175 175 175 175 174 173 173 172 169 169 168 167 167 166 166 168 171 177 187 198 212
86 77 49 348 351 307 331 51 55 65 80 60 76 138 164 166 151 145 150 153 161 169 173 173 173 175 176 177 182 181 182 183 182 181 182 179 178 180 182 184 185 185 186 191 200 213 226 248 274
90 115 182 204 200 250 327 27 63 71 63 56 74 95 138 151 151 153 160 169 175 180 183 183 183 182 181 184 184 184 185 187 186 186 186 183 184 191 196 201 201 199 199 206 218 231 245 260 278
117 157 181 198 204 227 319 26 44 92 66 126 147 145 146 147 155 163 169 178 183 185 186 188 189 187 184 187 182 186 187 186 189 191 191 188 191 201 210 208 211 210 210 215 230 240 250 256 264
98 154 163 190 206 216 342 50 51 56 60 105 135 137 131 130 148 161 170 180 181 181 190 192 192 190 191 188 185 187 188 191 195 200 198 192 194 202 200 201 205 209 212 215 225 233 244 253 258
64 104 171 179 145 74 63 58 66 32 26 66 84 85 79 78 67 41 67 155 172 187 193 191 191 192 191 188 189 189 193 196 199 202 203 197 194 194 192 200 205 213 217 217 219 224 232 239 241
178 156 44 17 50 41 67 46 50 15 29 59 64 68 60 55 49 39 27 27 22 206 203 193 193 193 189 191 193 193 195 197 199 203 205 200 196 193 192 198 202 212 218 222 219 215 213 215 192
11 9 15 20 52 33 66 40 22 4 42 55 52 58 53 44 44 43 32 28 20 12 357 253 207 196 194 196 196 195 195 195 197 204 207 204 199 195 193 196 200 209 215 217 214 207 193 180 159
22 31 2 354 49 56 82 53 5 16 45 45 40 42 42 38 36 34 32 29 24 18 12 359 299 228 212 206 202 196 193 193 200 204 205 206 204 196 186 189 197 200 198 194 184 172 156 155 146
25 13 346 354 23 57 84 79 23 29 48 47 37 32 31 27 25 22 22 23 22 16 10 2 354 347 272 233 211 202 194 192 196 200 201 202 203 197 180 181 185 177 167 172 172 155 145 151 154
350 353 12 20 29 72 80 67 43 38 43 40 32 27 25 22 16 13 14 16 16 15 11 6 357 352 335 297 240 211 193 192 190 191 194 192 194 188 174 170 171 157 149 154 150 139 129 140 152
83 72 49 48 56 72 83 68 47 36 40 33 25 20 17 12 8 11 10 9 9 10 8 4 358 349 344 329 265 214 201 192 189 187 180 181 176 173 167 166 161 152 154 161 152 135 126 122 125
56 57 20 350 45 88 91 70 50 40 37 30 22 13 6 3 4 4 5 4 1 359 358 358 352 343 335 319 288 239 204 185 183 177 165 169 169 169 176 166 163 160 152 153 153 143 137 142 141
36 56 356 318 15 79 110 59 26 19 23 23 18 11 7 4 358 355 355 354 354 354 352 350 343 338 331 323 315 319 123 130 149 167 176 179 166 166 167 165 160 166 164 168 170 161 154 161 177
330 315 305 295 39 309 76 102 13 354 7 11 7 4 1 356 353 351 349 349 349 346 344 344 341 338 335 333 334 303 221 205 195 179 171 167 159 153 158 167 165 169 171 177 182 173 166 155 171
299 301 304 283 141 59 23 94 3 353 1 357 355 354 353 349 347 346 346 345 344 345 344 343 343 345 342 341 333 310 248 214 174 155 156 159 154 151 159 163 166 171 173 181 181 171 172 169 174
339 4 31 45 72 55 352 76 18 0 343 341 344 345 346 345 342 341 344 346 347 347 347 347 347 348 349 351 351 344 287 168 158 165 167 165 152 151 171 168 173 172 170 176 182 188 190 192 190
25 48 32 23 33 38 8 72 26 339 337 335 334 338 343 346 342 344 348 350 352 351 350 349 350 352 355 3 6 4 16 95 133 146 158 150 148 154 183 163 163 165 171 184 184 192 204 201 201
16 80 110 111 67 11 18 53 313 333 335 334 335 339 346 349 347 348 349 350 351 351 351 353 355 355 1 9 11 17 27 52 72 89 111 127 144 160 160 144 140 162 184 196 195 198 210 209 216
26 19 134 134 81 77 37 18 327 340 345 346 348 349 350 351 351 351 352 354 351 351 353 357 3 5 6 9 13 22 25 37 55 67 79 95 113 143 146 152 158 194 201 204 206 214 214 203 208
59 58 58 71 87 77 35 7 330 327 332 336 340 343 343 347 350 355 355 355 356 357 359 3 9 10 8 12 20 30 28 34 42 51 48 47 56 82 126 163 202 224 219 204 198 204 207 191 192
10 29 64 78 98 119 74 315 263 280 301 315 324 329 333 338 338 346 350 353 359 4 6 10 9 14 17 17 20 27 28 30 37 40 32 28 32 59 92 165 219 233 224 211 187 193 189 176 175
52 44 98 111 77 94 123 280 270 267 286 299 310 319 326 328 330 337 341 348 357 3 9 15 16 20 17 15 21 25 25 28 31 27 24 25 32 35 37 37 48 47 49 57 111 177 161 159 163
Height
1518 1516 1515 1516 1519 1529 1529 1520 1513 1511 1512 1512 1510 1511 1515 1519 1522 1530 1528 1529 1532 1535 1537 1540 1542 1543 1544 1545 1545 1546 1546 1547 1548 1548 1549 1549 1549 1550 1550 1550 1550 1551 1551 1551 1552 1552 1553 1554 1555
1517 1516 1517 1517 1527 1541 1532 1517 1514 1511 1511 1511 1512 1514 1516 1520 1521 1524 1526 1530 1533 1535 1538 1540 1542 1543 1544 1545 1546 1546 1547 1548 1548 1549 1549 1549 1550 1550 1550 1551 1551 1551 1551 1552 1552 1553 1553 1554 1555
1517 1516 1518 1519 1529 1535 1527 1515 1511 1510 1510 1510 1514 1517 1519 1522 1523 1525 1527 1531 1534 1536 1538 1540 1542 1543 1544 1545 1546 1547 1547 1548 1548 1549 1549 1550 1550 1550 1551 1551 1551 1551 1552 1552 1552 1553 1554 1555 1555
1517 1517 1518 1524 1525 1519 1514 1512 1510 1511 1512 1513 1515 1519 1522 1524 1524 1525 1529 1532 1534 1536 1539 1541 1542 1543 1544 1545 1546 1547 1547 1548 1549 1549 1550 1550 1550 1551 1551 1551 1551 1552 1552 1552 1553 1553 1554 1555 1556
1516 1517 1523 1528 1521 1513 1510 1509 1510 1511 1514 1516 1516 1522 1524 1525 1525 1527 1530 1533 1535 1537 1539 1541 1542 1543 1544 1545 1546 1547 1547 1548 1549 1549 1550 1550 1551 1551 1551 1551 1552 1552 1552 1553 1553 1554 1554 1555 1556
1517 1519 1532 1534 1524 1514 1511 1510 1511 1514 1516 1518 1519 1523 1527 1527 1527 1529 1531 1534 1536 1537 1539 1541 1542 1543 1544 1545 1546 1546 1547 1548 1549 1549 1550 1550 1551 1551 1551 1551 1552 1552 1552 1553 1554 1554 1555 1555 1556
1519 1523 1533 1532 1528 1519 1514 1511 1511 1513 1515 1517 1518 1523 1527 1529 1528 1530 1532 1534 1536 1537 1539 1540 1542 1543 1544 1545 1545 1546 1547 1547 1548 1549 1549 1550 1551 1551 1551 1552 1552 1552 1553 1553 1554 1555 1555 1556 1557
1520 1525 1532 1533 1531 1524 1515 1512 1513 1513 1516 1518 1518 1521 1526 1528 1529 1530 1532 1534 1536 1537 1539 1540 1541 1542 1543 1544 1545 1545 1546 1547 1548 1548 1549 1550 1550 1551 1551 1552 1552 1552 1553 1553 1554 1555 1556 1556 1557
1521 1532 1540 1536 1533 1527 1518 1514 1516 1516 1517 1518 1519 1519 1522 1526 1529 1531 1533 1534 1536 1537 1538 1539 1540 1541 1542 1543 1544 1545 1545 1546 1547 1548 1549 1549 1550 1551 1551 1552 1552 1553 1553 1554 1554 1555 1556 1557 1558
1521 1536 1535 1529 1527 1525 1520 1517 1517 1519 1520 1521 1521 1522 1524 1526 1529 1530 1531 1532 1534 1535 1536 1538 1539 1539 1540 1541 1542 1543 1544 1545 1546 1547 1548 1548 1549 1550 1551 1551 1552 1552 1553 1554 1555 1556 1557 1557 1558
1520 1527 1526 1525 1522 1522 1522 1520 1520 1521 1524 1524 1523 1524 1525 1527 1529 1529 1530 1530 1531 1533 1535 1536 1537 1538 1539 1540 1541 1541 1542 1543 1544 1545 1546 1547 1548 1549 1550 1551 1551 1552 1553 1554 1555 1556 1557 1558 1559
1519 1521 1522 1522 1521 1521 1521 1522 1523 1524 1527 1525 1523 1524 1525 1527 1529 1529 1529 1530 1531 1532 1532 1534 1535 1536 1537 1538 1539 1540 1541 1541 1542 1543 1545 1546 1547 1548 1549 1550 1551 1552 1553 1554 1555 1556 1557 1558 1558
1519 1521 1521 1520 1520 1521 1522 1524 1526 1529 1529 1526 1525 1527 1528 1530 1530 1531 1531 1530 1530 1531 1531 1531 1533 1534 1535 1536 1537 1538 1539 1540 1541 1542 1543 1544 1545 1546 1548 1549 1551 1552 1553 1554 1555 1556 1557 1557 1558
1519 1519 1521 1523 1522 1523 1525 1528 1530 1535 1532 1529 1529 1530 1532 1532 1532 1532 1531 1531 1531 1530 1530 1530 1531 1532 1532 1533 1534 1535 1536 1538 1539 1540 1541 1542 1543 1545 1546 1548 1550 1552 1553 1554 1555 1556 1556 1557 1558
1518 1520 1523 1523 1524 1527 1526 1535 1538 1538 1535 1534 1534 1534 1534 1534 1533 1532 1532 1531 1530 1530 1530 1530 1530 1530 1530 1530 1531 1533 1534 1535 1536 1537 1538 1540 1541 1543 1544 1546 1548 1550 1551 1553 1554 1555 1556 1556 1557
1521 1527 1533 1528 1527 1528 1532 1549 1544 1541 1538 1539 1539 1538 1537 1536 1535 1534 1532 1531 1530 1529 1528 1528 1529 1528 1528 1528 1529 1529 1530 1532 1533 1535 1536 1537 1539 1541 1542 1544 1546 1548 1549 1550 1552 1553 1554 1555 1556
1535 1541 1538 1533 1530 1530 1535 1549 1549 1545 1543 1543 1543 1542 1540 1538 1536 1535 1533 1531 1529 1528 1527 1526 1526 1525 1525 1525 1525 1526 1527 1528 1530 1532 1534 1535 1536 1538 1540 1541 1543 1545 1547 1548 1550 1551 1552 1553 1554
1545 1543 1542 1540 1537 1536 1544 1552 1552 1550 1548 1548 1547 1544 1542 1540 1538 1536 1534 1531 1529 1527 1525 1523 1523 1522 1522 1522 1522 1523 1524 1525 1526 1527 1529 1531 1533 1535 1537 1539 1541 1542 1544 1546 1547 1548 1550 1551 1553
1538 1542 1545 1542 1538 1543 1551 1556 1557 1554 1551 1551 1550 1548 1545 1542 1540 1536 1533 1530 1528 1525 1523 1521 1520 1519 1518 1518 1518 1519 1519 1520 1522 1523 1525 1528 1530 1532 1534 1535 1537 1539 1540 1542 1544 1546 1547 1548 1550
1539 1545 1548 1543 1540 1546 1555 1560 1560 1559 1558 1557 1555 1551 1548 1543 1538 1535 1532 1529 1526 1524 1522 1519 1517 1516 1515 1514 1514 1514 1515 1516 1517 1519 1521 1522 1524 1527 1530 1532 1533 1535 1537 1539 1540 1542 1544 1545 1547
1543 1547 1547 1547 1544 1546 1553 1564 1565 1563 1561 1559 1557 1554 1550 1546 1541 1536 1532 1528 1525 1522 1520 1518 1515 1513 1512 1511 1510 1510 1510 1512 1513 1515 1516 1518 1520 1522 1525 1527 1529 1531 1533 1534 1536 1538 1540 1541 1543
1549 1542 1541 1542 1550 1559 1556 1573 1573 1567 1564 1560 1558 1554 1550 1547 1542 1537 1532 1528 1525 1522 1519 1516 1513 1511 1509 1507 1506 1506 1505 1506 1508 1510 1512 1513 1515 1518 1520 1523 1524 1526 1528 1531 1532 1534 1535 1537 1538
1545 1539 1540 1541 1550 1561 1564 1574 1580 1571 1569 1565 1562 1558 1553 1549 1544 1538 1533 1529 1524 1521 1518 1514 1512 1509 1506 1504 1503 1502 1502 1502 1504 1506 1507 1509 1512 1514 1516 1517 1520 1521 1524 1526 1528 1530 1531 1533 1534
1543 1542 1543 1549 1558 1576 1577 1579 1585 1580 1577 1570 1565 1560 1555 1550 1545 1539 1534 1528 1524 1520 1517 1514 1511 1508 1505 1502 1500 1499 1498 1499 1500 1502 1504 1506 1508 1510 1511 1512 1515 1517 1519 1521 1524 1526 1527 1529 1530
1550 1559 1571 1575 1583 1586 1578 1582 1589 1582 1577 1573 1568 1562 1557 1551 1546 1539 1534 1528 1524 1521 1517 1514 1510 1507 1504 1502 1499 1497 1497 1497 1498 1499 1501 1502 1504 1506 1508 1509 1511 1512 1514 1517 1520 1522 1523 1525 1526
1557 1564 1581 1587 1589 1588 1583 1587 1589 1581 1577 1573 1568 1563 1558 1552 1546 1540 1535 1530 1526 1522 1518 1515 1511 1508 1505 1502 1500 1498 1497 1497 1497 1498 1500 1501 1503 1505 1506 1507 1508 1510 1511 1514 1517 1518 1520 1521 1522
1562 1567 1567 1579 1582 1590 1590 1588 1584 1580 1576 1572 1568 1563 1558 1553 1547 1542 1537 1532 1528 1524 1520 1516 1513 1510 1507 1504 1502 1500 1498 1498 1498 1498 1500 1501 1502 1503 1505 1506 1507 1509 1510 1512 1514 1515 1517 1518 1520
1563 1566 1575 1582 1590 1596 1594 1593 1594 1584 1578 1573 1569 1564 1559 1554 1549 1544 1539 1534 1530 1526 1522 1518 1515 1512 1509 1507 1504 1502 1501 1500 1500 1500 1501 1501 1502 1503 1504 1505 1506 1508 1510 1511 1512 1514 1515 1516 1518
1569 1571 1577 1585 1589 1597 1600 1600 1587 1584 1579 1575 1570 1565 1561 1556 1551 1547 1542 1538 1533 1529 1525 1521 1517 1514 1511 1509 1507 1505 1504 1503 1503 1502 1503 1503 1503 1504 1505 1505 1507 1508 1510 1511 1512 1513 1514 1515 1517
1569 1571 1577 1588 1593 1595 1600 1601 1582 1580 1577 1574 1570 1566 1562 1558 1554 1550 1545 1541 1536 1532 1528 1524 1521 1517 1515 1513 1511 1509 1507 1506 1506 1505 1505 1505 1505 1505 1506 1507 1508 1509 1510 1511 1512 1513 1514 1515 1516